WetterOnline ( http://www.wetteronline.de )

Wetter aktuell Nittenau

Aktuelles Wetter: Straubing (360m)

6-stündlich | Neueste Meldungen
Ortszeit Temperatur Wetter
Mi, 18.07. 8:00 19.5° C bewölkt
Mi, 18.07. 2:00 19.5° C leicht bewölkt
Di, 17.07. 20:00 24.4° C leicht bewölkt
Di, 17.07. 14:00 25.2° C wolkig
Di, 17.07. 8:00 17.4° C wolkig
Di, 17.07. 2:00 14.4° C fast wolkenlos
Mo, 16.07. 20:00 22.0° C wolkenlos
Mo, 16.07. 14:00 23.5° C bedeckt
Ortszeit Temperatur Wetter
Mi, 18.07. 10:30 24.2° C wolkenlos
Mi, 18.07. 10:20 24.2° C wolkenlos
Mi, 18.07. 10:10 23.6° C wolkenlos
Mi, 18.07. 10:00 22.6° C fast wolkenlos
Mi, 18.07. 9:50 22.6° C fast wolkenlos
Mi, 18.07. 9:40 22.6° C bedeckt
Mi, 18.07. 9:30 21.9° C leicht bewölkt
Mi, 18.07. 9:00 20.9° C fast wolkenlos
Mi, 18.07. 8:30 20.1° C bedeckt
Mi, 18.07. 8:00 19.5° C bewölkt
Mi, 18.07. 7:30 18.5° C bewölkt
Ortszeit Relative Feuchte Sichtweite
Mi, 18.07. 8:00 64% 27 km
Mi, 18.07. 2:00 62% 70 km
Di, 17.07. 20:00 44% 50 km
Di, 17.07. 14:00 43% 45 km
Di, 17.07. 8:00 76% 23 km
Di, 17.07. 2:00 84% 19 km
Mo, 16.07. 20:00 56% 50 km
Mo, 16.07. 14:00 53% 26 km
Ortszeit Relative Feuchte Sichtweite
Mi, 18.07. 10:30 48% 20 km
Mi, 18.07. 10:20 48% -
Mi, 18.07. 10:10 50% -
Mi, 18.07. 10:00 53% 9 km
Mi, 18.07. 9:50 53% -
Mi, 18.07. 9:40 53% -
Mi, 18.07. 9:30 57% 22 km
Mi, 18.07. 9:00 58% 19 km
Mi, 18.07. 8:30 62% 30 km
Mi, 18.07. 8:00 64% 27 km
Mi, 18.07. 7:30 68% 24 km
Ortszeit Niederschlagsmenge Niederschlagsart
Mi, 18.07. 8:00 0.0 l/m2 in 12 Std. -
Mi, 18.07. 2:00 0.0 l/m2 in 6 Std. -
Di, 17.07. 20:00 0.0 l/m2 in 12 Std. -
Di, 17.07. 14:00 0.0 l/m2 in 6 Std. -
Di, 17.07. 8:00 0.0 l/m2 in 12 Std. -
Di, 17.07. 2:00 0.0 l/m2 in 6 Std. -
Mo, 16.07. 20:00 0.1 l/m2 in 12 Std. -
Mo, 16.07. 14:00 0.1 l/m2 in 6 Std. Regen
Ortszeit Niederschlagsmenge Niederschlagsart
Mi, 18.07. 10:30 0.0 l/m2 in 1 Std. -
Mi, 18.07. 10:20 keine Meldung -
Mi, 18.07. 10:10 keine Meldung -
Mi, 18.07. 10:00 0.0 l/m2 in 1 Std. -
Mi, 18.07. 9:50 keine Meldung -
Mi, 18.07. 9:40 keine Meldung -
Mi, 18.07. 9:30 0.0 l/m2 in 1 Std. -
Mi, 18.07. 9:00 0.0 l/m2 in 1 Std. -
Mi, 18.07. 8:30 0.0 l/m2 in 1 Std. -
Mi, 18.07. 8:00 0.0 l/m2 in 1 Std. -
Mi, 18.07. 7:30 0.0 l/m2 in 1 Std. -
Ortszeit Stärke Spitze Richtung
km/h Bft. km/h Grad Sektor
Mi, 18.07. 8:00 13 3 22 270° W
Mi, 18.07. 2:00 13 3 31 270° W
Di, 17.07. 20:00 6 1 39 300° NW
Di, 17.07. 14:00 15 3 33 270° W
Di, 17.07. 8:00 11 2 18 270° W
Di, 17.07. 2:00 6 1 17 260° W
Mo, 16.07. 20:00 7 2 32 360° N
Mo, 16.07. 14:00 9 2 19 210° SW
Ortszeit Stärke Spitze Richtung
km/h Bft. km/h Grad Sektor
Mi, 18.07. 10:30 13 3 22 270° W
Mi, 18.07. 10:20 13 3 - 270° W
Mi, 18.07. 10:10 11 2 - 290° W
Mi, 18.07. 10:00 11 2 22 290° W
Mi, 18.07. 9:50 11 2 - 290° W
Mi, 18.07. 9:40 11 2 - 290° W
Mi, 18.07. 9:30 14 3 22 270° W
Mi, 18.07. 9:00 13 3 22 280° W
Mi, 18.07. 8:30 14 3 22 270° W
Mi, 18.07. 8:00 13 3 20 270° W
Mi, 18.07. 7:30 11 2 22 270° W
Ortszeit Untergrenze Bedeckung Gattung
total tief tief mittel hoch
Mi, 18.07. 8:00 3300 m 7/8 7/8 - - -
Mi, 18.07. 2:00 3600 m 2/8 2/8 - - -
Di, 17.07. 20:00 2400 m 4/8 4/8 - - -
Di, 17.07. 14:00 1800 m 7/8 1/8 - - -
Di, 17.07. 8:00 2100 m 8/8 3/8 - - -
Di, 17.07. 2:00 2700 m 1/8 1/8 - - -
Mo, 16.07. 20:00 - 0/8 0/8 - - -
Mo, 16.07. 14:00 3300 m 8/8 8/8 - - -
Ortszeit Bedeckungsgrad in Achtel und Wolkenuntergrenze
Mi, 18.07. 10:30 keine Wolken
Mi, 18.07. 10:20 keine Wolken
Mi, 18.07. 10:10 keine Wolken
Mi, 18.07. 10:00 1(2400m)
Mi, 18.07. 9:50 1(2400m)
Mi, 18.07. 9:40 9 9 9
Mi, 18.07. 9:30 1(3000m) 9 9
Mi, 18.07. 9:00 1(3300m)
Mi, 18.07. 8:30 5(3300m) 9 9
Mi, 18.07. 8:00 7(3300m)
Mi, 18.07. 7:30 7(3300m) 7(3600m)
Ortszeit Luftdruck NN (hPa) Tendenz (hPa in 3 Std.)
Mi, 18.07. 8:00 1016 + 1,0
Mi, 18.07. 2:00 1015 + 0,8
Di, 17.07. 20:00 1012 + 0,5
Di, 17.07. 14:00 1013 - 0,5
Di, 17.07. 8:00 1014 + 0,8
Di, 17.07. 2:00 1013 + 0,5
Mo, 16.07. 20:00 1011 - 0,7
Mo, 16.07. 14:00 1013 - 1,4
Ortszeit Luftdruck NN (hPa) Tendenz (hPa in 3 Std.)
Mi, 18.07. 10:30 1015 + 0,4
Mi, 18.07. 10:20 1015 keine Meldung
Mi, 18.07. 10:10 1016 keine Meldung
Mi, 18.07. 10:00 1016 + 0,6
Mi, 18.07. 9:50 1016 keine Meldung
Mi, 18.07. 9:40 1016 keine Meldung
Mi, 18.07. 9:30 1016 + 0,8
Mi, 18.07. 9:00 1016 + 1,0
Mi, 18.07. 8:30 1016 + 0,9
Mi, 18.07. 8:00 1016 + 1,0
Mi, 18.07. 7:30 1016 + 1,1
Ortszeit Schneehöhe (cm)
Mi, 18.07. 8:00 -
Mi, 18.07. 2:00 -
Di, 17.07. 20:00 -
Di, 17.07. 14:00 -
Di, 17.07. 8:00 -
Di, 17.07. 2:00 -
Mo, 16.07. 20:00 -
Mo, 16.07. 14:00 -
Ortszeit Schneehöhe (cm)
Mi, 18.07. 10:30 -
Mi, 18.07. 10:20 -
Mi, 18.07. 10:10 -
Mi, 18.07. 10:00 -
Mi, 18.07. 9:50 -
Mi, 18.07. 9:40 -
Mi, 18.07. 9:30 -
Mi, 18.07. 9:00 -
Mi, 18.07. 8:30 -
Mi, 18.07. 8:00 -
Mi, 18.07. 7:30 -
Link zu dieser Seite / Seite empfehlen

Das Wetter in ...